Location: San Martino di Castrozza
(46.2667°N, 11.8000°E)
Time: 16:02:59
(UTC+00:00)

SL-16 R/B - Pass Details

Date: 23 April 2021
Orbit: 985 x 1006 km, 99.5° (Epoch: 12 May)

Event Time Altitude Azimuth Distance (km) Brightness Sun altitude
Exits shadow 02:21:33 21° 261° (W) 2,086 3.7 -17.3°
Maximum altitude 02:22:11 21° 269° (W) 2,072 3.8 -17.2°
Drops below altitude 10° 02:26:50 10° 317° (NW) 2,791 4.9 -16.6°
Sets 02:30:01 0° 333° (NNW) 3,747 5.7 -16.2°
